Wind_Gust
19 19 19 19 19 19 19 19 19 19 19 19 19 20 20 21 21 21 22 22 21 22 22 23 23 23 25 27 27 27 24 19 20 20 20 32 18 20 22 22 23 13 7 6 9 6 6 3 3 3 5 5 9 7 9 6 6 8 18 19 16 13 17 14 18 20 10 14 9 7 10 9 13 15 10 6 12 6 7 10 5 13 13 14 21 27 28 26
19 19 19 19 19 19 19 19 19 19 19 19 19 20 20 21 21 21 22 22 22 22 21 21 22 23 24 25 26 27 21 15 21 17 27 32 23 23 23 24 25 21 12 8 5 3 2 3 2 3 7 10 2 10 7 15 11 18 16 18 33 17 17 16 16 15 12 9 10 11 6 11 16 7 10 6 3 6 8 8 7 17 18 21 25 27 27 26
20 19 19 19 20 19 19 19 19 19 19 19 19 20 20 20 21 21 22 22 22 22 22 21 21 23 23 24 24 24 18 19 15 18 19 11 15 17 21 22 23 20 13 9 5 6 4 2 2 5 5 7 6 10 7 18 16 14 16 26 24 11 10 14 13 15 12 10 13 13 8 8 9 8 6 5 7 4 12 17 11 21 22 24 25 25 24 23
18 19 18 19 19 19 19 19 19 19 19 19 20 20 20 20 21 21 21 22 22 23 22 22 22 22 23 23 24 20 12 13 15 13 4 13 18 20 21 21 21 18 10 8 5 5 1 2 3 7 8 7 7 6 15 17 24 13 14 22 17 10 14 13 10 12 14 10 11 12 4 8 8 5 5 8 9 5 9 11 20 25 26 25 25 25 23 23
19 19 20 19 18 18 19 20 20 19 19 19 20 20 20 20 20 20 21 22 22 23 23 22 22 21 22 22 22 13 15 11 13 4 6 21 22 24 27 26 17 11 14 6 6 3 3 2 4 4 9 17 5 4 12 10 11 10 22 8 9 9 13 5 13 12 12 8 8 5 4 15 4 5 6 9 7 13 13 12 9 27 30 32 30 27 25 25
20 20 21 21 22 21 20 20 20 19 20 20 20 20 20 20 20 20 20 21 21 22 23 22 21 21 20 22 18 6 6 16 6 9 14 22 23 26 28 27 14 10 11 7 10 3 8 2 5 10 12 9 11 20 8 12 6 21 13 8 8 8 13 7 9 11 10 14 10 7 8 7 5 4 3 5 5 9 11 13 20 25 28 29 29 30 27 25
19 20 21 22 22 22 22 23 23 23 22 21 21 20 20 20 20 20 20 20 21 22 23 22 22 20 19 15 14 2 9 32 14 11 24 21 23 26 30 21 16 9 7 10 7 10 5 6 9 6 11 8 7 20 8 5 6 11 23 2 7 6 11 6 9 9 10 14 15 12 3 7 3 7 4 5 7 9 12 22 23 24 23 26 29 25 28 25
19 20 21 22 23 22 23 23 24 24 24 23 22 21 21 20 20 20 19 20 20 21 21 22 20 20 16 10 14 8 7 27 24 11 20 21 20 23 23 12 17 7 7 10 9 9 6 10 13 9 10 19 10 17 6 8 5 20 24 7 5 5 10 10 8 6 7 8 9 5 8 8 8 7 6 6 8 4 13 23 25 26 26 24 26 26 23 21
21 21 21 22 23 23 22 23 23 24 24 24 24 23 22 21 21 19 20 20 20 20 21 20 21 17 12 8 13 16 23 16 9 13 12 17 19 20 14 15 15 12 7 6 7 9 9 10 8 11 11 9 7 7 6 9 23 15 12 5 6 8 4 10 11 16 12 6 5 7 13 5 5 8 8 5 5 7 16 22 25 25 26 26 25 25 24 24
20 21 22 22 23 23 23 23 24 24 24 24 24 24 23 22 20 20 20 20 20 19 20 20 20 17 8 10 10 12 15 6 6 12 15 19 22 21 12 5 10 11 10 9 6 7 13 12 12 7 3 6 6 10 5 17 16 4 7 14 10 10 7 6 11 13 13 11 6 12 12 7 7 8 10 5 8 13 20 21 21 25 26 24 23 21 20 25
21 21 22 22 22 22 23 23 24 24 23 24 23 23 24 24 23 21 20 21 20 19 19 19 19 12 5 6 11 26 10 11 5 18 19 22 21 16 16 13 8 12 7 11 9 10 9 7 8 5 7 19 6 9 8 13 3 13 4 6 15 16 13 8 6 13 5 13 13 12 17 6 4 5 10 15 13 15 22 21 22 20 22 27 21 20 16 17
22 23 22 22 23 23 23 24 23 24 23 23 22 23 23 24 24 22 22 20 21 19 18 18 19 10 7 14 24 35 12 17 24 22 24 21 22 16 14 14 11 9 7 10 12 7 7 10 6 8 18 6 14 3 13 6 4 3 3 6 5 8 26 19 23 14 8 15 11 16 9 5 7 8 4 17 17 17 18 19 19 18 17 19 19 16 15 15
23 23 23 22 23 23 23 23 24 23 24 23 22 22 22 23 24 24 22 21 19 19 19 18 14 5 7 28 30 28 30 31 29 25 25 19 19 15 16 13 12 11 11 9 9 6 6 9 5 7 10 5 7 22 6 5 5 3 4 8 5 8 17 24 14 12 9 13 13 13 20 10 10 7 13 17 20 18 18 18 17 16 17 17 17 15 13 10
23 23 23 23 23 24 23 23 23 24 24 23 23 23 22 22 24 24 23 21 21 19 16 16 10 5 11 28 19 20 14 18 19 22 28 18 13 18 10 10 10 11 9 11 15 15 11 6 9 10 7 8 11 7 11 7 4 16 8 8 17 10 28 11 22 13 16 14 12 13 21 12 9 9 15 14 21 22 22 19 16 16 15 16 16 15 14 11
24 23 23 24 24 24 24 24 24 23 23 24 23 23 21 22 23 24 23 20 18 16 17 11 3 5 15 31 11 22 28 22 17 24 25 14 11 18 12 4 5 7 9 11 10 4 8 5 7 11 15 7 8 8 12 6 6 10 15 22 14 22 11 5 11 18 31 12 13 12 18 14 12 14 17 13 16 20 20 19 17 16 15 15 13 16 15 12
24 25 25 25 25 25 25 25 24 23 23 24 23 22 23 23 24 23 22 19 19 15 5 4 5 7 17 38 21 11 11 7 12 19 18 11 11 14 16 10 8 10 8 8 14 11 7 6 9 12 9 5 10 10 4 10 9 10 24 13 21 17 10 10 8 14 19 14 4 21 16 9 5 13 14 12 17 21 19 18 18 16 15 16 15 14 13 12
25 26 26 25 25 26 25 25 24 24 24 23 23 22 23 24 24 23 21 20 12 4 8 8 2 6 13 14 12 15 11 10 8 5 6 11 14 16 7 6 6 5 4 7 6 5 4 10 7 9 9 11 10 12 10 13 14 21 15 24 10 16 9 21 8 6 11 16 12 11 16 9 8 21 17 15 16 16 20 19 18 17 15 15 15 14 14 14
26 26 26 25 25 25 24 24 24 24 23 21 20 19 28 26 25 18 11 7 6 6 4 2 4 6 32 17 20 12 7 11 12 18 19 21 19 13 9 11 5 4 4 8 3 9 8 13 9 12 8 13 14 20 29 42 44 29 15 15 7 5 13 14 18 9 14 13 16 8 9 7 9 15 21 17 15 18 19 20 21 19 17 17 15 15 13 14
26 26 27 26 25 25 25 23 24 23 21 19 18 21 23 18 10 6 7 4 7 8 10 13 14 17 22 8 9 12 12 13 21 13 13 4 6 10 7 5 3 3 8 10 11 12 8 7 6 7 22 24 32 33 33 5 8 10 12 11 9 14 14 22 17 6 18 12 15 15 19 13 16 19 17 13 15 18 17 15 15 15 16 16 16 16 14 13
26 27 27 27 26 24 23 23 21 21 21 14 15 19 15 17 16 10 6 2 7 10 11 9 21 18 21 31 20 8 18 13 15 8 8 6 7 7 6 7 5 5 12 17 6 10 12 15 21 30 34 31 18 12 9 8 9 16 12 11 11 7 5 8 7 10 9 12 15 13 12 20 22 22 18 17 16 15 16 19 16 16 18 18 16 17 15 15
27 27 27 26 25 23 22 22 20 18 19 5 8 10 10 7 11 17 13 19 20 15 19 21 21 24 32 19 13 17 23 18 6 17 16 11 10 9 9 11 8 10 12 8 13 7 11 16 26 23 7 7 10 8 7 15 7 6 12 13 13 12 13 8 10 5 11 17 4 7 17 18 22 20 21 18 18 22 22 21 17 18 14 15 18 18 14 13
27 27 27 26 25 24 23 21 20 19 12 2 4 8 9 7 6 6 11 24 12 18 19 23 18 25 29 27 21 9 8 19 29 22 15 11 9 18 8 14 12 22 7 8 7 9 18 33 26 7 4 6 10 11 9 15 17 4 7 11 13 13 7 8 6 5 4 9 6 9 16 17 19 20 16 19 20 21 21 24 24 21 16 17 16 16 16 16
27 28 27 26 26 24 23 21 20 16 6 6 4 4 9 9 5 3 8 20 33 15 21 21 19 25 33 22 16 9 12 16 23 21 9 5 5 15 14 14 11 10 13 13 22 11 18 26 4 15 6 9 7 13 13 14 16 13 5 5 14 10 19 21 6 3 7 14 13 10 14 15 14 11 9 8 10 9 8 12 11 14 17 17 19 18 18 17
27 27 27 26 26 23 23 21 15 7 5 3 5 8 8 5 6 5 6 15 24 16 16 17 18 18 23 18 14 19 15 14 10 20 11 13 11 7 14 13 9 13 20 21 21 21 17 5 15 11 15 8 9 9 15 16 22 17 8 6 6 6 9 12 12 5 4 10 14 16 13 12 16 14 12 10 7 11 10 9 10 9 11 11 11 15 17 18
28 28 27 26 24 23 22 18 8 3 6 7 6 7 8 8 4 4 4 16 15 22 6 6 10 11 15 7 8 13 10 12 19 11 4 5 7 7 11 12 15 18 18 16 9 13 12 12 7 20 15 12 10 12 19 19 18 15 9 10 8 3 3 3 4 9 9 6 9 23 15 14 15 13 18 13 12 14 14 13 13 14 14 14 17 18 16 14
28 28 27 24 22 22 19 13 5 7 12 13 7 2 5 5 5 6 5 11 18 12 5 7 8 10 11 7 12 10 6 19 15 23 14 8 7 7 9 17 19 20 14 11 17 21 17 12 5 14 17 15 15 15 8 16 15 15 18 15 9 6 2 3 5 8 9 20 17 5 18 18 11 21 18 16 16 14 15 17 16 15 19 21 20 16 17 17
28 27 26 24 23 21 14 9 5 8 10 7 2 4 7 4 3 6 12 12 11 10 6 5 6 16 13 7 14 10 7 17 7 11 15 15 8 9 7 8 11 7 13 13 15 27 15 18 10 7 19 21 18 23 19 18 18 26 7 17 12 8 6 5 6 7 6 5 8 6 13 18 17 24 20 17 19 17 17 19 23 19 19 22 17 18 19 19
29 27 25 26 24 16 14 16 15 12 12 7 3 6 7 3 5 8 10 15 20 7 4 5 9 6 6 7 16 17 9 6 12 5 19 12 9 5 6 4 9 10 14 17 28 7 20 21 15 10 10 21 29 23 8 11 23 15 7 15 14 14 10 7 6 3 4 10 9 12 3 16 19 10 18 21 21 20 20 22 24 24 20 21 20 20 21 19
29 28 28 26 25 22 14 10 8 15 8 2 3 8 6 5 7 8 8 9 10 11 12 8 11 5 5 6 13 10 10 7 7 4 4 8 14 8 8 10 6 4 10 18 17 5 15 17 16 13 13 24 14 12 14 16 16 6 14 11 8 8 9 10 11 6 4 7 13 19 13 24 13 8 23 21 25 27 26 26 26 25 23 23 24 21 19 17
31 30 30 27 21 9 5 4 15 16 6 6 6 5 5 6 4 7 12 13 12 12 4 9 7 6 5 4 10 6 10 9 7 8 5 12 10 4 9 2 5 4 7 5 8 11 6 4 12 19 21 13 9 10 12 12 9 6 13 12 6 6 3 5 6 9 6 13 22 15 15 14 21 15 26 31 36 30 29 24 20 20 21 22 24 23 21 21
33 34 31 25 17 6 5 11 15 13 13 6 3 3 5 6 6 8 9 19 11 13 5 6 5 6 8 11 14 7 10 8 9 5 5 6 5 10 6 6 4 5 4 7 14 14 12 10 13 18 11 10 8 11 11 15 13 12 17 13 13 8 5 8 4 5 16 25 16 14 21 8 22 10 17 23 21 34 30 28 30 28 29 28 25 24 22 20
35 35 32 24 15 10 14 10 8 6 6 6 7 8 6 6 5 11 19 5 15 8 3 4 5 7 12 5 5 7 10 6 6 4 7 9 7 15 12 11 17 15 12 8 16 6 15 16 7 10 12 14 15 11 10 14 15 16 10 13 24 16 16 17 9 13 24 33 8 16 17 10 28 15 18 28 26 22 28 33 35 34 30 27 24 24 23 20
36 34 32 17 9 11 19 15 3 7 4 6 6 5 7 6 15 10 15 6 13 4 8 3 7 7 6 9 10 11 8 11 4 8 4 7 11 11 7 14 6 14 19 12 9 14 17 9 5 8 7 18 15 25 17 21 20 19 22 21 28 23 21 20 18 17 17 12 7 16 18 23 7 17 15 28 34 31 30 30 27 29 30 29 27 24 22 20
33 30 19 6 7 13 9 10 12 3 6 4 7 4 4 7 16 9 10 11 12 4 6 8 6 9 10 20 10 11 10 6 5 10 8 8 8 11 9 10 5 6 8 6 19 17 15 18 21 16 20 16 25 23 20 10 23 23 12 21 19 23 33 29 24 33 20 14 8 5 20 20 12 14 14 30 33 30 23 20 10 12 12 13 14 17 20 21
32 20 10 8 6 12 12 9 8 9 6 4 5 7 9 16 10 10 11 9 10 7 9 8 9 11 19 19 17 12 9 11 11 4 12 11 10 11 12 12 12 6 6 18 15 16 16 22 12 17 4 15 20 13 11 12 14 12 13 12 12 29 14 17 16 10 10 10 9 11 21 12 17 5 7 10 16 16 10 14 16 15 16 18 20 22 24 23
19 15 4 6 4 4 13 11 9 10 9 7 7 11 16 13 12 5 11 6 8 10 11 11 18 17 16 12 6 10 10 9 8 13 9 15 10 12 6 11 19 14 12 18 13 19 13 23 4 9 17 8 15 14 18 16 31 21 20 32 28 10 9 10 4 3 7 8 15 11 12 10 14 9 10 6 17 14 13 14 18 18 20 22 22 22 22 23
18 17 9 6 4 7 13 13 13 11 7 7 8 14 13 15 15 9 9 8 7 5 11 13 12 7 7 8 6 9 10 11 8 15 10 13 16 15 10 7 7 14 14 9 7 8 20 14 8 10 19 19 9 17 12 16 13 20 29 16 8 7 8 10 14 6 8 15 18 8 15 6 11 24 8 9 17 14 20 19 20 19 20 23 23 23 25 24
19 14 9 5 11 7 13 13 12 8 8 6 13 16 7 14 8 15 8 9 11 7 12 9 11 5 6 4 4 10 11 13 9 14 8 14 22 10 15 12 8 14 17 10 5 9 4 8 11 10 15 17 7 13 12 12 9 23 22 8 30 23 22 12 13 13 9 13 13 8 4 9 16 14 10 12 21 18 18 17 18 21 23 25 22 22 21 21
9 8 10 8 12 10 12 13 10 11 5 9 13 16 9 17 8 10 8 11 11 12 12 9 10 7 6 5 6 11 17 16 10 9 12 15 17 9 19 13 9 11 11 13 14 10 6 6 10 7 17 14 12 18 24 23 16 4 12 21 12 11 17 15 26 11 14 8 7 11 3 19 17 16 20 25 25 27 24 22 26 30 31 29 27 25 25 26
8 9 8 4 7 9 11 9 9 4 4 11 8 16 5 17 18 13 14 13 13 11 12 9 7 8 5 9 7 9 13 8 12 11 7 9 20 5 16 16 10 17 11 15 16 4 8 3 6 11 8 16 21 26 26 26 29 19 19 21 26 22 8 14 9 13 10 13 11 14 12 18 18 18 21 25 29 28 30 32 31 29 27 26 24 26 25 23
8 7 10 4 6 4 7 6 5 8 10 12 9 17 13 14 12 12 9 11 15 11 12 7 6 7 7 9 7 6 12 9 12 11 11 6 19 15 12 19 13 11 13 9 9 10 13 7 6 8 13 21 24 17 13 19 15 15 18 16 13 22 14 25 24 10 13 12 11 12 16 17 21 12 25 25 24 28 32 34 32 27 27 28 27 24 24 23
12 14 10 8 6 4 6 5 10 5 10 13 12 12 21 14 17 13 10 8 15 16 7 11 12 14 12 12 8 5 9 10 9 8 10 12 11 14 8 16 19 8 23 23 22 10 12 5 3 9 13 22 12 4 10 11 13 13 19 15 11 11 16 16 22 13 8 11 10 9 11 18 15 9 19 23 22 25 29 29 26 25 28 28 27 24 23 22
11 9 3 10 4 3 3 9 7 8 10 14 11 18 17 16 12 12 9 6 7 12 11 15 13 10 12 12 7 8 7 13 10 13 11 10 15 23 11 19 19 16 13 18 6 10 11 18 11 14 11 10 8 6 8 15 13 8 13 8 11 16 14 18 17 14 20 7 7 6 10 20 11 6 9 8 7 12 14 19 24 22 22 24 23 24 22 21
11 11 7 4 4 4 6 12 12 11 16 14 11 22 10 14 9 11 11 8 11 11 11 12 7 15 6 13 14 13 9 9 11 12 13 12 17 17 14 16 23 28 19 17 23 15 22 14 9 9 7 12 7 8 8 8 19 20 17 19 15 15 13 9 9 5 15 14 16 15 15 18 9 10 8 9 9 11 12 8 12 15 18 21 22 21 21 21
13 9 8 5 5 6 7 7 7 15 15 17 22 20 21 11 12 19 11 9 8 11 8 12 11 9 11 7 10 9 14 17 9 12 15 11 17 8 19 20 27 19 20 11 13 14 17 7 13 7 9 18 22 25 24 17 26 20 13 16 14 17 12 12 17 13 19 7 6 16 17 21 14 6 8 10 11 8 8 10 8 12 18 23 22 21 22 22
12 18 13 7 7 9 10 5 8 9 15 14 17 14 9 18 16 9 15 16 12 8 13 11 10 10 9 6 11 14 17 18 18 9 12 11 13 13 17 21 25 26 22 21 10 14 11 6 8 12 15 18 18 17 10 12 17 32 21 19 17 12 16 14 13 13 21 9 11 14 16 13 12 4 9 11 13 15 15 16 20 21 19 19 21 25 25 23
7 12 16 21 10 9 8 6 7 7 13 16 15 13 14 21 21 18 12 11 9 14 10 14 12 11 11 13 13 13 16 10 19 14 15 8 8 12 17 22 20 26 28 26 10 9 5 10 14 9 13 20 17 12 11 15 18 13 13 13 9 11 11 12 18 24 12 17 12 15 7 12 16 10 11 16 15 12 14 16 16 16 21 24 21 19 15 20
16 6 5 7 13 15 20 10 15 18 19 13 11 8 14 19 20 21 10 10 7 11 11 7 10 12 13 13 6 9 7 5 10 15 8 16 9 10 17 13 21 20 19 17 9 12 12 13 11 8 15 17 17 19 14 20 17 17 14 12 13 10 14 18 15 14 16 23 20 12 11 14 13 16 21 23 25 29 30 28 21 19 20 19 21 23 22 20
6 10 10 12 14 9 10 19 21 18 21 14 10 7 19 18 21 20 14 11 9 8 7 13 13 15 14 10 9 6 6 10 11 9 11 10 9 16 14 12 6 13 14 11 9 12 13 16 16 9 16 17 14 14 11 19 16 16 17 16 15 14 16 15 13 10 19 13 20 19 17 21 20 18 21 23 16 14 13 14 19 23 26 25 25 23 24 24
15 14 12 12 12 18 15 12 14 12 12 12 16 12 21 16 20 28 25 7 16 11 7 12 15 18 15 8 5 7 7 10 8 7 8 8 7 10 14 10 15 6 12 14 13 5 15 20 7 5 7 12 9 6 6 14 16 20 14 17 17 16 15 11 8 4 6 7 5 6 11 20 15 7 7 11 16 17 17 20 22 22 24 26 26 24 24 25
10 7 12 19 21 12 10 8 13 14 13 18 20 19 21 21 20 23 25 11 14 14 15 15 20 20 8 6 5 6 17 18 13 14 10 7 7 6 14 8 12 14 9 10 12 12 10 16 4 7 8 12 6 5 7 9 15 16 13 14 16 12 12 10 17 14 12 13 7 10 7 17 13 5 11 14 17 21 23 19 19 20 22 24 26 26 26 25
10 9 11 11 12 10 13 11 10 9 13 10 12 19 17 21 20 20 26 9 7 15 17 13 14 11 12 12 12 18 17 16 18 16 12 12 13 13 4 6 11 18 13 11 7 13 16 11 11 6 9 11 7 3 10 14 13 10 11 18 19 10 6 7 4 7 13 15 16 12 17 13 9 14 17 13 16 14 16 21 22 19 22 26 28 29 28 26
Wind_Speed
14 14 14 15 15 15 15 15 15 15 15 15 15 16 16 16 17 17 17 17 17 17 17 18 18 18 18 20 21 22 20 9 12 8 8 12 9 12 17 17 19 10 5 3 6 4 3 1 2 2 3 2 1 1 2 0 0 2 3 5 8 5 9 6 8 8 5 6 4 4 7 6 6 1 0 1 8 4 3 6 3 8 9 8 11 17 16 14
15 15 15 15 15 15 15 15 15 15 15 15 15 15 16 16 17 17 17 17 18 17 17 16 17 18 18 20 20 21 15 10 12 10 13 14 15 16 16 19 17 16 9 4 4 2 0 1 1 2 3 2 1 2 1 2 1 5 2 5 15 7 5 10 8 10 5 4 6 6 5 7 7 0 1 1 1 3 4 4 4 11 11 13 14 16 16 15
15 15 15 15 16 15 15 15 15 15 15 15 15 15 15 16 16 16 17 18 17 18 17 17 17 17 17 17 19 19 12 11 8 8 6 2 8 10 10 10 13 14 7 5 3 4 2 1 1 3 1 3 1 3 2 2 4 4 6 10 10 4 5 9 8 10 7 7 8 7 3 6 3 1 1 1 5 3 7 7 6 10 13 13 14 14 14 14
15 15 14 14 13 15 15 15 15 15 15 15 16 15 16 16 16 16 16 17 18 18 18 17 18 17 16 17 19 13 7 7 5 3 2 9 11 15 17 17 12 5 6 5 3 2 0 0 2 4 2 3 1 1 5 5 4 2 2 5 3 4 5 7 7 8 10 7 6 7 3 2 2 3 2 5 5 3 4 5 9 14 16 16 15 15 14 14
15 15 16 15 15 14 15 15 16 15 15 15 16 16 16 16 16 16 16 16 17 17 18 18 17 17 17 16 16 7 9 3 2 1 2 14 16 18 21 20 10 5 9 4 2 1 2 1 1 1 2 4 1 2 4 4 2 1 7 1 3 3 6 4 8 8 8 6 6 2 1 3 2 3 2 6 4 5 7 8 6 15 18 19 18 16 13 14
14 15 15 16 17 17 16 16 16 15 16 16 16 16 16 16 16 16 16 16 17 17 18 17 17 17 16 14 8 3 3 2 1 1 11 15 17 19 21 18 11 4 7 4 5 2 4 0 3 3 1 3 7 9 2 4 3 6 3 3 3 3 5 2 4 6 6 3 5 3 4 3 1 2 0 2 2 3 2 3 14 14 17 15 15 17 14 15
14 15 15 16 16 17 18 18 18 18 18 17 16 16 16 16 16 16 16 16 16 17 17 17 17 16 14 8 6 0 3 10 4 6 18 15 17 19 21 13 12 4 2 4 2 3 3 4 4 3 4 2 3 6 3 2 1 4 7 0 4 3 5 3 4 6 5 6 6 3 1 0 1 2 1 2 4 6 6 9 14 14 14 16 17 17 18 16
15 16 16 17 18 18 18 18 18 18 19 19 17 16 16 16 16 16 15 16 15 16 16 17 16 16 12 3 5 3 3 11 6 5 11 16 15 17 16 5 11 5 1 2 5 3 3 6 7 3 3 9 3 8 3 1 2 9 7 4 2 2 4 5 2 2 3 4 3 3 2 4 1 2 3 3 4 2 5 12 15 15 15 15 15 16 14 14
16 16 16 16 16 17 18 18 18 18 18 19 19 18 17 17 17 16 16 15 15 15 16 16 17 14 9 1 3 9 9 6 4 4 9 12 14 14 9 6 9 8 4 2 1 2 5 4 3 5 5 4 2 5 3 5 7 5 7 2 1 2 2 6 6 6 3 1 1 1 3 2 2 4 4 1 3 2 9 13 14 15 16 16 16 16 16 16
16 16 16 17 17 17 17 18 19 19 19 18 18 18 18 18 16 16 15 16 15 15 15 15 15 14 4 1 2 5 6 3 3 6 10 13 16 15 7 2 7 7 6 6 4 1 4 3 6 3 2 2 3 3 4 11 5 2 5 7 4 4 3 3 7 6 4 4 3 3 0 0 1 1 3 1 5 8 11 13 14 15 16 15 13 13 12 14
17 16 17 17 17 18 18 18 19 18 18 19 18 17 17 18 19 17 16 16 16 15 13 14 15 9 1 0 2 11 4 6 2 10 14 15 14 10 11 8 4 5 2 5 2 2 4 2 4 2 1 4 3 5 3 4 1 1 2 1 5 7 8 4 3 4 1 4 7 5 3 1 2 0 4 8 9 10 13 13 14 13 13 13 12 12 9 9
18 18 18 17 17 17 18 18 18 18 19 18 17 18 17 17 19 18 17 16 16 16 13 12 14 5 3 7 13 14 6 8 14 13 14 12 11 9 10 9 6 4 1 3 5 3 4 5 1 2 4 2 2 0 5 4 2 1 2 1 3 5 8 12 12 4 4 4 6 8 2 1 1 4 3 10 12 11 11 12 13 12 11 10 10 8 8 9
18 18 18 18 18 18 18 18 18 18 18 18 18 18 18 17 18 18 17 17 15 15 15 11 9 2 3 15 13 13 16 14 15 15 14 10 10 9 10 8 7 6 6 4 5 1 2 4 2 2 3 0 2 5 1 1 3 3 2 3 3 1 6 14 6 5 6 3 8 7 5 6 5 3 7 11 13 13 12 10 10 8 10 10 10 8 7 6
19 18 18 18 18 19 19 18 17 18 18 18 18 18 17 17 18 18 18 17 16 14 11 10 3 0 4 11 4 7 10 9 11 13 15 10 6 8 4 7 7 5 5 7 8 6 7 3 3 3 2 2 2 3 1 2 1 7 3 3 6 3 7 3 8 9 9 4 8 6 8 4 4 4 10 10 14 16 15 11 8 7 8 9 9 8 8 7
19 19 19 19 19 20 19 19 18 18 18 19 19 18 17 18 19 19 18 16 14 12 10 3 1 0 5 10 4 10 15 8 6 13 11 5 5 8 4 2 0 3 6 8 3 3 4 2 2 2 3 2 4 3 3 1 1 3 5 8 4 11 1 2 6 12 16 1 8 6 6 7 5 8 12 9 10 14 13 13 11 8 7 7 7 10 8 7
19 20 20 20 19 20 20 20 19 18 18 19 19 18 19 18 17 18 17 14 15 12 1 0 1 2 8 14 5 7 5 1 5 6 6 6 3 5 7 5 5 5 3 4 7 5 3 3 3 4 1 2 3 3 1 0 2 2 12 5 8 9 5 2 4 8 11 5 3 13 4 2 0 6 9 8 10 15 12 12 12 11 10 9 7 7 8 7
20 20 20 20 19 19 19 19 19 19 19 17 18 17 18 19 18 18 16 14 6 1 4 1 1 2 4 3 5 8 3 3 4 3 3 4 5 7 3 4 3 2 1 4 3 3 1 3 1 2 1 3 3 5 4 7 5 7 5 8 3 9 3 7 3 1 7 11 5 5 5 4 3 13 10 7 10 10 13 13 12 11 7 8 6 6 7 8
19 20 20 20 19 18 18 18 19 19 18 17 15 15 16 20 15 6 3 4 3 2 1 0 1 0 10 2 5 4 3 5 5 8 11 11 9 8 4 3 2 2 1 1 1 3 2 2 2 4 2 3 6 8 11 18 19 12 4 5 1 1 7 7 5 2 9 9 9 5 6 4 3 8 14 10 10 12 13 13 14 12 10 9 7 7 8 7
20 20 22 21 20 19 18 17 18 17 16 16 15 17 15 5 1 2 3 2 3 1 1 3 5 5 8 4 2 6 4 5 9 7 7 2 1 1 2 2 2 1 2 4 3 7 1 1 3 3 9 10 13 17 16 2 3 7 8 5 5 7 6 9 6 1 12 7 8 10 10 6 9 12 11 7 8 11 10 10 7 9 8 9 9 9 8 7
20 20 20 21 20 18 17 17 17 16 17 9 7 7 5 5 5 1 2 1 3 6 6 5 11 8 13 15 6 2 7 7 7 4 4 3 2 2 1 2 2 1 5 7 1 4 4 7 9 13 15 16 11 7 5 1 3 11 7 7 6 4 2 2 3 4 5 5 9 8 6 9 10 13 11 10 9 9 10 11 10 10 11 12 10 10 9 10
21 21 20 20 20 18 17 16 16 14 15 3 4 3 3 2 4 5 5 10 12 10 11 11 13 14 13 3 2 8 9 7 3 8 7 4 6 1 3 3 3 5 6 5 5 1 4 8 12 13 5 4 5 3 4 3 4 3 8 8 7 5 4 3 5 2 7 6 1 4 7 8 11 12 13 11 12 13 13 12 11 11 9 9 11 11 9 7
21 21 21 20 20 18 18 16 16 16 9 1 1 1 1 2 2 1 3 7 7 12 12 15 10 13 12 13 10 4 2 6 14 11 8 6 4 7 2 4 5 11 4 4 4 2 8 14 13 5 3 4 7 5 5 6 2 3 4 7 7 6 2 3 1 1 2 5 2 4 10 7 10 12 10 12 13 11 13 15 16 13 11 10 9 10 8 8
22 22 21 20 20 18 17 16 16 10 1 3 1 1 2 3 1 1 3 7 15 5 11 11 9 13 15 10 6 6 8 8 8 9 3 1 2 7 4 5 4 5 6 7 11 6 8 12 2 9 4 6 4 8 6 7 2 1 2 3 7 5 9 8 2 2 4 3 6 4 7 4 5 5 5 4 5 3 5 8 7 9 11 11 12 11 9 9
21 22 21 20 20 18 16 15 7 4 2 1 3 4 3 2 1 2 1 5 10 5 6 5 8 5 8 6 2 10 8 3 4 9 2 4 6 4 3 6 4 5 10 12 13 11 6 3 9 7 9 5 5 6 9 8 9 2 3 1 1 4 4 6 5 2 3 6 7 10 6 3 6 8 4 4 3 5 5 6 5 6 7 7 5 7 9 10
21 22 22 20 19 18 17 13 4 1 3 4 2 4 4 3 1 2 0 4 4 7 2 2 4 4 5 1 4 4 4 3 10 3 0 3 3 2 3 2 3 8 9 10 5 6 6 6 4 13 10 6 5 7 11 11 9 2 3 6 5 2 0 2 3 6 3 2 4 9 3 2 7 8 10 7 5 7 6 7 9 9 9 9 10 11 10 8
21 22 21 19 17 17 15 5 1 2 5 5 3 0 1 2 1 2 1 1 7 3 1 2 2 2 2 0 3 2 3 4 8 11 5 3 2 2 1 4 3 9 5 6 6 3 6 4 1 7 11 10 5 6 5 10 8 6 6 9 6 3 0 2 2 5 3 5 7 1 9 4 5 12 10 8 7 9 7 8 8 8 9 11 11 10 9 9
22 21 21 19 18 16 6 1 0 3 5 2 0 2 2 2 1 1 3 2 3 1 2 1 1 1 2 2 6 3 1 3 3 2 8 7 4 3 2 4 2 0 3 2 1 7 5 11 6 2 10 12 9 7 5 11 9 8 3 9 7 4 3 1 4 3 1 2 0 2 3 6 5 10 9 9 8 8 8 10 9 8 12 13 11 9 9 9
22 22 20 20 19 13 6 5 6 6 6 3 2 2 2 1 2 2 2 3 2 1 0 1 2 1 1 2 6 5 3 2 4 0 8 3 4 1 1 2 4 5 6 7 13 0 13 10 9 5 3 9 12 6 5 7 8 4 4 9 8 7 6 2 2 1 1 6 3 6 1 2 5 3 11 11 12 11 11 11 14 14 12 12 12 11 10 10
21 22 22 20 20 17 7 3 4 8 3 0 1 4 1 3 3 2 3 1 1 0 2 1 2 1 1 2 3 4 4 2 3 1 1 4 5 3 2 6 2 3 6 11 8 1 3 10 10 7 4 6 3 7 9 8 6 3 10 6 3 3 3 4 3 2 1 2 6 11 6 5 2 3 11 12 14 14 14 14 16 15 14 13 13 13 11 10
24 24 24 22 14 4 0 1 7 8 4 3 3 2 2 2 1 1 3 4 2 2 1 1 1 2 2 0 3 3 5 2 2 2 1 1 3 2 3 1 1 1 3 2 3 6 2 2 7 5 6 3 5 5 7 6 4 3 8 6 3 4 2 3 3 3 2 4 10 9 9 5 3 5 13 17 15 15 14 12 11 12 13 13 14 15 12 12
26 26 24 20 6 1 2 3 7 8 8 4 1 1 1 2 1 2 2 4 2 4 1 2 1 3 2 6 7 3 2 2 3 2 1 1 1 3 2 0 1 1 2 3 6 8 3 1 4 2 7 3 4 4 6 9 5 8 3 5 7 1 2 3 1 2 3 8 5 6 10 5 7 3 8 11 10 21 18 18 20 19 18 16 14 14 13 12
28 28 25 12 5 4 4 3 3 1 3 3 2 4 1 0 1 2 5 1 1 2 1 1 0 1 3 3 3 2 2 2 2 0 2 3 4 5 3 4 3 3 3 3 5 2 4 1 2 4 6 10 4 6 5 8 8 6 4 8 11 3 2 3 1 2 9 8 2 5 10 2 9 6 9 16 11 13 17 17 19 19 17 16 15 15 13 12
29 27 22 7 3 4 7 4 2 3 2 4 2 2 2 1 4 4 4 2 2 0 1 1 2 3 2 3 4 5 2 4 2 2 1 0 6 6 3 5 3 2 4 2 3 5 4 1 1 3 2 7 7 8 6 8 10 9 7 8 12 6 6 6 6 1 3 2 2 3 10 5 2 5 8 13 16 16 19 19 18 18 17 18 17 14 12 12
26 23 8 2 2 4 2 6 4 1 3 2 4 1 1 1 5 5 4 4 4 1 3 1 3 5 3 5 4 4 3 3 3 2 3 2 4 4 3 4 1 1 3 3 5 5 6 5 8 5 3 5 8 6 6 3 12 10 1 7 7 7 5 8 4 8 6 4 2 1 4 5 6 5 9 18 19 19 15 13 6 6 7 8 9 11 11 11
25 12 4 1 2 4 5 5 5 3 0 1 2 1 3 4 3 3 3 2 2 2 4 1 3 5 10 9 11 6 4 2 4 1 4 3 4 4 5 5 3 2 0 7 3 2 9 3 6 5 2 6 8 5 5 7 6 4 3 5 4 9 5 3 2 3 2 3 3 2 5 5 6 1 3 3 3 0 5 7 8 9 10 11 12 13 14 12
14 6 1 0 1 2 6 4 5 6 4 3 1 3 6 4 3 1 2 2 1 2 5 5 9 7 7 5 2 5 5 2 2 2 1 4 2 4 3 2 3 5 2 5 2 3 2 4 2 4 4 5 8 7 5 8 8 5 6 10 8 4 4 4 2 2 3 4 3 1 4 2 7 5 1 1 3 5 6 8 10 10 13 14 13 13 13 12
7 8 3 2 0 4 6 6 6 6 3 3 2 5 3 3 6 3 3 1 3 2 3 4 1 2 3 1 1 3 1 3 1 2 2 2 2 2 2 1 3 4 6 3 1 1 9 3 2 5 9 7 5 11 5 6 6 5 8 7 3 2 3 2 3 2 1 5 4 2 6 1 4 6 3 2 6 7 11 12 12 12 13 15 14 14 15 15
7 5 3 2 6 2 6 7 8 4 3 2 5 11 2 4 3 7 3 4 5 3 4 2 2 2 1 1 1 4 4 4 3 2 1 3 2 5 4 1 3 6 7 2 1 1 1 0 3 6 9 7 2 6 4 5 4 11 9 3 9 5 8 2 1 1 1 2 2 1 2 2 6 5 1 5 9 10 10 8 9 12 13 15 14 14 13 14
4 1 2 3 6 5 5 6 4 4 2 2 5 6 2 7 4 5 5 5 6 7 4 4 3 2 2 1 2 2 6 4 4 3 2 2 2 4 8 4 2 5 6 7 1 2 2 1 1 2 10 5 4 6 10 10 2 2 7 6 3 2 4 3 5 3 5 2 2 4 1 5 6 5 10 12 14 15 13 12 14 18 19 16 15 15 15 16
3 2 1 2 4 4 5 4 4 2 1 4 3 4 1 6 8 8 8 6 5 4 4 4 4 3 1 4 2 3 5 4 7 4 2 2 4 1 7 8 3 5 5 8 3 1 2 0 0 3 3 7 6 6 11 11 10 5 8 7 3 3 2 4 1 2 2 4 4 2 2 5 7 9 10 14 12 14 18 17 16 16 16 16 15 15 14 14
2 1 1 1 3 2 4 2 1 2 4 4 4 6 7 4 4 5 6 8 7 6 6 3 1 2 1 3 2 0 3 2 4 3 3 2 6 1 4 8 6 5 4 3 3 2 1 1 1 2 2 9 8 2 3 6 7 6 6 5 6 7 6 11 9 1 2 2 2 3 5 7 10 4 12 12 11 11 15 19 17 16 16 15 14 14 14 14
2 3 2 1 0 1 3 1 2 2 3 6 4 2 7 6 7 8 4 4 10 6 3 4 7 7 6 5 3 1 2 3 4 3 3 5 5 3 3 9 11 5 7 4 3 2 3 1 1 3 3 3 1 2 6 8 8 6 7 5 5 4 6 4 6 4 1 1 3 3 1 6 4 3 5 5 8 13 14 13 15 14 14 13 11 12 12 12
2 3 1 4 1 1 1 3 3 2 3 5 6 10 9 7 6 4 3 2 2 6 5 6 6 4 6 5 2 2 3 3 5 4 5 5 4 13 5 10 11 8 7 1 1 3 6 3 2 5 4 3 4 3 3 10 8 4 5 2 5 7 6 7 6 5 5 1 0 1 1 7 5 4 4 2 3 4 2 3 2 3 4 7 10 12 13 13
3 3 1 1 2 1 1 3 4 5 6 8 6 12 6 6 3 4 4 3 3 3 5 4 1 6 1 2 0 2 3 1 4 4 3 3 3 7 6 9 11 6 8 7 7 4 3 2 2 2 2 3 4 3 2 1 5 4 5 8 6 5 4 2 5 2 3 6 7 6 4 7 2 5 1 4 4 6 7 5 7 8 8 10 10 11 11 12
3 2 2 1 2 2 2 2 2 6 7 10 10 12 11 3 6 11 5 4 4 4 2 3 2 4 4 3 3 4 5 6 0 5 2 2 3 2 10 10 10 8 9 5 8 4 3 2 3 1 3 8 7 8 9 7 13 5 5 9 7 8 6 6 7 3 6 2 3 4 5 10 7 3 0 2 5 4 4 5 5 8 9 11 11 12 12 12
2 4 3 2 2 3 4 1 3 4 7 7 10 7 5 7 6 4 9 7 8 4 6 1 3 3 3 3 4 4 5 3 4 0 3 3 2 1 7 12 14 10 11 9 6 7 2 2 2 4 4 5 7 5 2 1 1 5 6 10 9 7 8 6 5 4 8 2 4 6 8 8 8 2 3 5 7 10 9 9 11 11 10 10 10 10 12 12
0 2 3 7 2 3 3 2 2 2 6 8 5 4 7 12 10 7 6 3 4 7 4 7 3 2 3 4 5 4 7 2 3 1 5 2 3 3 10 16 13 9 19 14 6 4 1 1 3 4 6 9 7 7 5 8 8 6 6 6 4 6 7 7 7 8 5 8 6 5 4 2 9 7 6 6 4 3 5 6 7 9 12 13 13 12 12 11
3 1 0 2 3 5 7 1 2 9 11 8 4 3 6 10 12 8 3 5 4 4 2 1 5 5 4 5 3 3 1 1 1 3 4 8 4 1 4 5 9 13 14 6 4 2 2 1 3 4 7 10 10 13 6 7 10 9 8 7 7 6 10 10 8 7 9 8 9 7 6 6 7 9 10 12 11 13 16 16 12 10 11 12 14 15 14 12
1 2 2 4 2 4 4 11 13 11 13 9 3 3 11 11 13 7 5 4 3 3 1 4 2 5 6 6 5 2 1 2 2 3 3 0 6 6 4 4 1 5 8 3 1 2 1 5 4 4 9 10 10 10 7 10 8 8 11 11 10 9 9 8 7 5 11 7 11 12 9 12 11 7 5 4 2 3 4 6 8 13 15 14 14 14 14 14
4 4 3 3 5 8 9 6 5 6 7 5 5 6 6 8 13 17 12 2 4 5 1 4 10 12 9 5 3 1 3 6 2 1 2 1 2 3 5 4 6 2 5 4 3 1 6 6 2 0 1 7 5 2 4 7 9 10 9 12 11 11 10 8 3 1 2 3 3 2 6 11 6 2 3 3 7 7 8 9 9 9 11 14 15 15 15 16
3 3 4 6 7 4 4 3 5 6 4 4 6 9 10 11 11 14 13 5 7 4 3 10 13 12 3 4 2 3 1 1 4 9 5 2 2 1 2 1 7 5 4 2 1 1 3 5 1 2 3 6 2 2 5 6 10 11 8 9 10 8 8 3 4 7 6 7 3 3 3 8 7 2 3 5 9 10 10 11 11 11 13 14 15 15 16 15
3 4 5 3 4 4 5 4 4 1 2 2 3 8 4 14 13 10 10 3 2 9 6 8 9 7 1 3 3 4 7 9 11 10 7 6 4 1 2 1 7 9 5 3 1 5 4 1 2 2 3 4 3 1 5 6 5 3 7 11 12 7 3 3 1 4 7 7 8 5 9 7 6 7 8 5 9 8 9 12 11 11 14 16 17 18 17 16
Wind_Direction
353 348 348 346 344 342 340 342 339 338 337 337 337 336 335 335 331 333 333 331 328 328 329 329 330 329 331 335 332 328 333 326 317 314 304 253 242 253 266 266 271 261 274 356 332 7 333 6 158 349 76 116 255 132 246 338 128 98 189 183 225 182 186 184 178 183 199 180 229 211 208 197 262 302 187 39 34 92 57 53 358 37 40 73 97 113 121 125
349 348 348 346 344 343 340 340 339 336 337 336 337 332 334 332 331 330 334 333 331 329 329 329 327 330 332 332 334 329 335 319 303 294 253 258 272 286 277 264 263 261 256 275 240 266 317 12 18 100 109 156 302 182 136 228 143 184 179 164 230 165 216 163 181 191 125 220 223 212 187 180 230 118 255 125 192 135 67 29 72 75 76 89 104 120 128 133
348 346 347 346 342 341 339 338 337 336 336 334 333 332 331 330 331 331 331 331 332 331 329 330 329 328 331 337 333 334 335 313 306 280 282 239 251 331 325 301 267 250 217 206 198 193 210 201 173 102 99 120 191 173 153 248 153 236 140 214 224 189 191 200 170 195 206 180 228 238 227 163 232 155 174 191 177 147 151 135 110 121 128 127 129 131 136 139
343 344 344 344 341 336 335 334 334 335 333 333 331 330 329 329 329 332 330 331 331 331 330 330 329 331 328 335 339 330 341 298 281 243 262 21 4 356 346 338 323 244 177 207 179 143 156 91 63 112 103 158 247 136 162 232 154 266 181 227 207 190 171 224 203 195 208 188 220 229 125 133 258 166 117 161 104 239 240 185 161 156 147 144 145 144 146 147
342 340 341 339 339 338 334 331 331 331 330 327 328 325 326 325 326 327 330 328 330 329 328 328 329 328 330 336 337 354 316 352 278 218 15 18 12 4 356 352 349 142 163 154 146 266 197 151 103 46 111 181 148 122 239 227 198 120 228 187 191 182 208 230 208 209 199 204 219 269 153 236 165 54 100 156 197 232 203 177 169 153 151 151 154 156 153 154
341 340 339 338 337 335 335 330 326 326 325 325 323 324 323 322 322 324 325 327 328 327 326 327 327 329 332 351 333 352 18 262 333 292 343 10 14 5 358 356 11 101 137 144 150 156 136 128 105 140 157 133 187 178 263 190 165 243 254 221 202 200 186 238 207 224 200 191 197 226 235 127 86 101 223 136 180 241 224 178 153 159 159 154 146 151 158 159
340 336 334 336 332 332 331 329 327 324 322 319 318 320 320 319 319 322 321 324 322 324 323 325 325 326 340 355 317 107 213 276 311 279 342 8 8 1 357 355 4 67 116 131 137 135 169 143 148 185 127 143 248 197 231 140 221 219 232 334 229 196 206 237 204 225 220 205 218 203 22 34 115 308 187 70 292 280 249 171 147 148 150 151 157 168 165 166
339 337 336 337 333 331 331 326 325 321 320 317 316 312 314 315 318 320 321 318 318 316 324 321 323 326 348 5 345 330 271 250 260 310 348 359 1 353 350 358 19 8 61 184 162 160 142 161 175 143 148 167 226 171 202 210 253 215 238 224 285 191 228 253 241 267 247 246 273 339 301 262 179 194 88 26 357 4 115 134 139 145 152 160 162 165 166 166
338 337 336 335 332 331 329 328 325 321 320 319 313 312 309 313 313 316 315 316 315 318 318 321 316 323 4 34 324 312 258 241 279 350 356 353 346 343 1 0 3 14 316 341 309 221 146 225 165 179 212 188 230 158 197 147 263 213 223 148 225 208 248 237 259 244 210 299 140 157 254 335 185 132 64 293 38 90 123 129 142 148 155 167 172 170 170 174
338 334 334 332 334 333 331 329 325 323 321 319 316 311 311 309 309 310 312 312 313 316 315 316 315 321 339 357 328 294 268 286 327 345 344 340 337 336 357 32 4 357 1 325 343 190 207 208 175 200 122 207 169 209 168 190 213 166 165 210 218 243 257 260 214 246 229 217 149 180 50 202 335 122 242 301 120 129 129 140 149 157 166 171 172 175 178 174
337 333 333 332 330 329 328 326 322 319 320 318 318 316 311 309 308 305 305 306 310 312 316 312 314 328 23 261 170 249 282 357 318 330 326 326 327 332 321 329 349 328 315 306 277 197 229 203 217 111 345 226 145 238 168 218 332 73 162 156 230 230 234 239 203 239 134 263 180 160 211 116 315 95 213 159 140 144 142 152 159 164 169 174 176 176 173 178
334 332 332 330 327 325 327 324 322 321 318 319 317 316 313 308 302 303 302 302 305 307 309 311 306 305 248 244 236 233 305 302 304 304 309 317 308 299 291 284 272 242 230 283 284 248 207 236 165 234 192 146 214 170 251 221 125 229 151 244 275 223 238 228 229 211 160 255 166 163 169 231 118 197 183 152 146 144 151 156 165 169 171 171 173 171 173 180
335 332 331 329 328 329 326 326 323 322 321 318 315 315 313 310 305 301 301 299 299 302 309 312 307 278 291 281 253 257 263 276 285 295 297 292 290 278 263 261 244 226 219 225 254 240 198 212 185 266 261 113 191 144 289 130 205 88 72 143 307 277 255 234 214 203 175 233 151 125 209 226 215 239 173 157 146 147 147 162 165 172 171 171 173 179 175 168
334 332 330 329 328 327 326 326 323 321 318 317 315 311 308 304 300 296 294 295 296 299 307 301 310 223 235 252 314 284 274 264 276 295 281 290 308 294 273 249 229 218 207 222 254 264 269 237 203 221 282 217 217 296 30 348 68 175 212 130 209 177 253 163 180 188 200 177 156 164 221 281 256 222 173 166 152 155 161 165 165 166 172 172 176 178 184 187
334 330 329 327 326 326 326 325 323 320 319 318 316 315 308 301 293 290 289 291 289 291 291 9 105 258 276 275 318 265 266 261 274 255 262 291 287 319 304 5 343 214 207 213 233 227 216 173 149 182 253 220 268 8 325 16 1 174 133 218 205 204 312 202 203 163 198 236 154 146 232 225 228 189 170 172 158 158 158 164 169 168 169 175 174 183 186 189
333 329 326 325 331 328 326 324 323 322 320 320 318 311 304 293 287 284 282 279 282 278 276 356 256 160 287 292 270 327 317 227 260 253 264 198 211 234 273 298 278 262 230 252 215 246 232 140 164 190 198 73 161 123 65 35 284 253 198 201 199 208 238 324 227 197 182 108 175 178 209 95 234 193 185 175 163 166 158 163 169 173 173 175 177 180 183 174
332 327 325 331 331 327 326 323 322 324 325 323 319 310 299 290 287 286 285 283 267 263 134 192 121 146 255 195 342 308 286 264 269 319 318 184 200 231 292 313 277 310 265 269 224 192 229 150 226 102 225 146 170 124 117 214 268 238 208 206 200 192 178 211 301 165 175 151 195 220 138 224 196 173 176 179 169 162 161 170 174 176 175 175 172 179 182 190
330 327 328 330 328 327 325 323 323 328 326 325 322 312 301 297 305 299 14 43 77 108 103 66 97 343 262 225 271 262 11 308 327 306 294 278 225 241 189 237 273 246 344 272 91 154 197 183 135 196 150 184 148 176 173 205 204 193 164 171 210 69 170 196 177 254 149 190 170 180 192 219 190 162 176 178 175 170 168 173 176 178 174 178 180 185 192 194
329 327 327 327 327 326 327 324 324 330 330 326 323 311 303 16 30 76 83 79 59 354 14 217 158 174 228 217 233 353 299 292 302 284 292 333 28 163 125 196 287 156 176 161 270 166 214 132 92 118 186 195 198 191 194 17 181 189 148 134 156 153 196 188 211 245 164 179 186 166 186 175 165 165 174 180 176 178 166 165 168 180 182 181 183 188 190 197
329 327 327 326 324 325 329 325 326 331 331 332 345 333 10 9 3 343 344 25 209 204 221 177 203 255 298 291 321 274 306 310 304 255 255 295 49 41 181 175 210 136 154 189 166 205 151 185 190 199 202 201 201 200 186 51 57 132 134 150 185 139 216 260 225 194 170 122 197 181 160 167 170 175 172 174 174 179 160 166 181 187 188 192 190 190 189 196
328 329 326 324 322 325 328 328 326 329 328 355 348 27 45 325 322 321 308 263 257 243 243 239 204 221 238 305 305 342 341 312 197 282 267 272 288 298 261 159 176 165 201 167 158 261 132 203 222 213 197 181 177 145 235 291 6 101 142 146 188 179 186 217 191 220 188 165 304 149 153 174 172 176 180 174 176 179 170 176 189 190 192 191 189 192 187 176
330 327 326 325 325 326 328 327 326 321 332 101 62 65 220 219 223 302 317 292 228 235 236 239 238 253 254 255 262 253 288 285 300 265 272 163 195 162 253 161 190 193 133 137 184 190 198 214 220 181 145 133 141 165 193 223 206 8 106 159 154 213 197 275 200 331 210 170 244 182 151 181 178 180 177 176 182 188 187 185 189 184 183 189 191 188 175 168
328 326 326 329 327 326 328 326 320 332 40 33 37 263 242 233 333 335 257 277 284 218 234 237 242 247 260 259 239 154 205 217 255 289 217 139 173 200 161 181 213 144 143 171 190 176 211 238 169 156 126 134 156 169 169 227 229 111 49 75 177 208 160 223 269 50 15 136 162 164 130 174 188 164 164 188 172 150 177 176 181 195 193 195 196 191 183 179
327 325 326 327 325 326 326 328 336 55 7 282 267 223 247 283 356 328 291 292 305 303 209 225 211 233 246 243 215 178 190 224 166 269 208 168 156 201 161 181 157 165 187 188 199 200 203 292 162 147 171 160 158 165 160 187 232 156 140 168 143 138 191 151 210 91 87 45 116 98 80 145 199 176 167 155 122 139 149 156 161 183 197 198 194 194 200 196
329 324 324 325 324 327 330 332 44 322 297 297 227 249 252 268 255 196 59 296 262 272 186 306 173 234 227 86 111 161 214 275 229 245 275 140 196 115 228 162 138 212 200 191 194 224 272 275 170 158 177 159 138 171 179 170 217 190 220 198 206 169 131 39 103 110 40 46 280 137 67 268 195 207 189 165 168 176 166 170 191 186 187 189 200 204 196 192
328 324 325 325 323 329 331 346 291 274 337 295 242 325 334 347 93 210 101 343 295 269 300 292 124 298 120 38 124 198 110 263 220 223 223 206 215 199 191 195 176 208 192 145 190 216 207 270 75 173 161 181 166 170 198 161 186 200 252 204 214 178 111 69 73 83 149 173 228 257 158 244 179 205 192 188 183 184 166 191 195 191 192 199 208 204 196 186
326 327 327 329 327 330 327 298 269 323 336 321 159 20 343 57 23 70 53 302 314 205 146 221 127 189 156 209 156 125 40 264 283 192 197 213 199 167 131 239 167 170 142 151 96 232 156 225 236 258 171 176 187 195 212 168 150 217 214 185 190 175 246 130 91 110 172 232 239 157 143 146 196 215 199 167 186 184 181 196 202 204 203 205 205 204 200 189
324 328 328 327 324 322 278 299 314 299 244 250 32 340 7 142 87 53 92 0 292 163 38 255 230 98 127 199 163 176 205 356 336 312 212 180 156 13 153 216 165 183 172 162 196 18 162 204 208 214 221 179 197 183 133 161 156 216 200 166 177 181 206 176 99 100 141 117 207 247 217 120 216 238 183 172 192 200 197 197 208 210 209 207 205 207 206 193
324 327 327 324 322 313 290 246 278 260 231 229 352 332 5 73 91 112 115 175 263 34 20 36 57 49 350 53 212 267 327 337 295 286 357 135 214 135 171 237 198 194 202 192 185 290 179 195 200 179 157 202 148 135 157 163 132 224 166 163 153 173 176 163 162 119 110 85 216 214 194 194 287 239 170 180 204 205 205 205 211 211 210 205 205 211 207 192
327 325 323 321 320 298 334 149 225 242 263 296 337 312 48 48 37 21 29 264 20 294 234 233 105 284 21 114 252 241 250 286 258 324 60 92 258 315 255 157 138 150 209 211 189 209 170 188 171 156 193 181 156 166 145 157 193 131 122 113 58 54 73 39 88 110 61 227 232 200 198 179 238 217 184 175 201 195 205 219 217 213 210 208 208 206 204 194
326 324 320 318 293 307 170 265 256 241 235 249 290 286 75 34 116 97 247 248 348 252 31 359 352 4 20 15 329 301 271 239 293 225 219 94 22 205 294 354 352 35 51 96 195 252 262 252 152 232 136 184 124 152 171 167 184 127 154 132 113 51 23 38 3 44 157 250 223 181 188 163 210 281 229 210 189 195 195 202 206 207 205 202 201 202 201 194
326 322 318 316 264 182 181 229 290 352 165 170 150 54 67 275 12 152 235 42 317 288 62 282 300 288 295 157 201 287 281 341 246 339 169 161 135 179 205 188 166 116 171 173 202 241 272 211 249 315 179 149 178 142 189 165 200 196 113 134 162 214 115 235 48 225 210 216 279 188 132 68 239 217 199 204 212 200 202 204 204 204 202 197 198 198 195 191
326 322 321 316 282 167 210 196 153 32 82 155 76 33 58 155 268 226 265 30 253 217 329 155 260 225 235 275 240 243 206 229 277 260 192 43 144 230 225 198 181 132 183 200 115 135 257 6 110 256 176 186 157 163 157 167 190 196 170 160 163 155 169 201 225 211 330 294 333 149 155 199 256 270 199 198 207 204 204 207 208 203 196 191 191 190 188 190
324 324 318 278 224 210 190 197 209 74 23 126 85 123 187 239 245 188 215 211 237 234 259 242 286 262 240 243 246 140 281 234 162 251 158 205 137 183 242 270 172 5 76 145 130 171 161 253 259 185 220 189 177 180 178 144 172 197 167 157 174 164 174 195 185 194 214 191 305 323 117 229 142 241 190 192 203 209 207 207 192 174 177 184 181 186 187 187
324 315 281 296 236 228 200 193 194 171 169 79 84 201 238 245 242 246 255 269 264 265 270 124 286 280 276 229 244 217 193 296 203 163 184 151 189 159 176 223 206 123 229 127 237 100 200 214 259 207 214 174 180 168 147 121 154 212 171 71 112 217 138 135 197 126 180 114 54 179 201 186 171 241 278 287 319 126 163 157 145 157 155 162 175 186 191 189
327 329 2 269 218 211 176 179 148 142 160 140 167 206 227 217 255 136 258 189 342 288 287 278 257 255 254 257 123 226 187 197 266 171 284 183 191 170 196 184 169 179 165 160 201 128 119 231 278 168 220 162 176 158 196 149 168 195 126 204 206 132 99 87 52 39 101 65 229 187 306 308 300 321 311 287 167 188 161 165 159 159 164 168 181 184 189 188
344 334 23 304 91 141 161 160 147 141 157 161 239 255 233 268 231 238 291 271 280 326 302 300 321 201 308 297 331 165 181 109 291 146 249 174 281 175 155 237 159 161 202 117 326 208 148 234 280 136 200 241 196 173 188 193 149 114 193 215 77 110 97 134 212 357 75 163 247 90 213 278 109 245 342 77 153 182 176 178 177 166 161 173 182 184 186 186
329 317 260 301 336 142 149 145 132 145 116 193 225 254 136 260 190 223 217 278 280 202 268 232 253 150 304 344 261 167 217 168 201 149 238 194 259 174 144 127 197 163 203 170 109 265 163 70 252 186 186 200 152 154 203 229 169 185 191 203 152 210 226 308 94 222 116 184 247 301 241 259 192 233 319 220 178 185 189 166 150 166 176 184 182 185 181 179
288 296 355 0 347 124 138 134 117 117 112 225 246 291 226 242 257 239 219 237 251 272 260 223 233 205 201 249 232 154 166 175 169 191 138 229 188 203 174 156 208 192 186 145 189 272 354 164 306 234 176 178 148 165 197 198 239 9 122 173 195 126 225 109 199 180 115 213 100 285 84 231 214 222 203 211 190 184 173 166 181 183 187 184 184 180 179 178
353 30 301 3 17 81 121 117 87 55 120 253 250 236 260 285 265 254 250 248 269 219 234 273 217 275 207 249 213 153 214 175 146 220 164 191 209 247 179 164 166 187 163 174 189 270 310 213 137 261 229 131 196 199 199 183 172 168 174 182 181 203 226 155 60 146 192 168 178 166 278 275 246 213 194 214 200 185 171 183 190 191 192 189 182 176 175 173
326 111 268 48 44 73 109 133 131 186 241 261 246 265 284 259 296 258 240 222 241 225 245 243 266 221 270 319 267 5 165 193 170 183 181 214 190 186 212 171 141 185 128 136 180 173 254 5 204 297 118 193 207 193 139 172 169 180 168 194 192 139 109 168 230 41 108 107 224 130 250 265 263 191 201 212 198 188 194 183 187 193 192 184 179 175 168 167
343 41 290 137 25 356 152 208 232 174 253 271 264 251 287 272 281 285 283 244 223 233 202 260 255 255 252 238 218 300 160 192 205 168 214 167 222 211 236 172 163 162 153 182 181 226 153 157 67 293 206 223 214 157 163 161 155 183 156 226 168 137 114 138 176 251 33 253 109 158 74 275 250 287 245 227 181 191 201 196 192 192 186 178 171 164 165 166
30 217 253 164 178 279 51 246 212 208 242 254 278 275 248 263 243 281 311 215 232 215 225 217 225 203 228 212 174 231 194 205 186 210 188 193 202 214 200 183 166 151 149 126 125 231 173 265 300 306 296 289 290 311 179 151 138 141 219 160 137 185 178 164 158 180 172 268 333 340 269 258 287 311 269 205 189 185 148 183 162 94 133 153 156 161 162 160
296 283 328 133 246 326 266 321 328 303 281 284 286 271 254 246 255 282 241 240 210 212 227 228 245 223 322 185 162 254 204 121 227 171 247 184 222 211 169 186 171 160 158 210 174 204 153 283 119 335 2 74 28 30 56 244 164 191 186 205 191 181 138 159 106 104 176 218 172 124 237 277 277 323 301 117 127 155 162 149 141 142 149 155 158 159 160 158
272 214 233 203 158 229 225 193 232 295 300 305 311 305 321 283 213 231 220 236 208 236 254 252 247 136 197 180 229 249 255 219 237 238 167 195 237 194 186 174 196 177 193 134 193 143 168 196 138 129 145 143 170 177 194 201 198 195 188 191 201 179 153 128 189 180 198 279 137 156 247 256 275 322 31 125 125 115 135 137 132 146 154 159 160 160 160 159
12 2 306 347 169 226 247 189 215 250 287 304 315 296 291 299 299 238 201 259 212 189 252 194 122 152 217 148 229 230 242 195 199 327 163 239 253 202 188 179 189 207 165 201 180 143 185 159 153 164 159 199 211 219 289 57 103 190 207 191 200 194 169 154 118 125 199 205 185 228 198 255 290 255 233 184 162 162 165 160 157 157 159 157 157 157 161 160
305 68 320 333 312 209 239 216 228 218 289 308 301 326 316 321 302 298 138 278 185 184 238 216 155 206 213 170 226 278 247 291 232 294 256 253 238 235 188 179 188 185 182 197 174 88 83 319 241 195 237 243 234 228 232 174 185 194 185 216 177 161 159 158 173 216 169 115 255 265 211 178 256 260 236 218 192 159 167 168 152 153 161 163 160 153 151 156
54 257 34 61 310 303 336 349 329 311 294 305 265 306 287 311 326 333 297 212 275 172 250 49 157 220 303 244 218 203 170 169 124 200 266 239 242 287 99 152 168 204 190 202 212 174 131 214 251 174 257 246 241 250 231 216 183 182 188 179 184 177 154 176 207 202 150 194 204 247 170 204 252 240 222 209 187 184 184 184 174 152 139 146 154 156 157 154
87 334 267 41 322 275 245 281 304 297 300 289 265 301 323 328 325 328 313 308 347 314 195 304 274 281 286 271 207 198 102 90 295 245 232 159 158 131 102 136 241 176 183 205 129 165 68 257 249 205 266 273 259 232 210 210 188 174 183 188 183 157 185 177 201 185 182 204 209 223 176 223 230 245 231 199 127 95 72 87 118 147 159 155 153 154 159 162
21 342 332 316 249 277 283 284 282 300 296 312 351 336 323 316 329 333 338 331 315 287 245 285 298 317 320 301 230 111 200 183 173 263 265 62 94 91 138 181 146 141 156 201 182 356 144 264 106 260 223 266 260 226 176 209 177 183 194 184 178 177 187 201 177 204 210 295 307 267 182 248 260 196 175 143 99 90 109 129 143 144 150 158 160 163 168 173
311 287 295 315 311 276 271 295 321 317 317 331 16 335 329 325 329 327 302 259 225 284 321 302 302 305 349 283 302 288 210 208 235 215 243 250 123 152 115 229 143 147 170 152 140 38 147 265 57 31 277 297 327 135 184 196 188 174 189 189 173 161 174 175 163 205 160 208 157 124 157 255 271 222 122 134 138 143 152 153 156 164 164 160 167 171 175 176
314 295 305 281 283 297 329 304 291 321 314 18 346 318 313 302 306 320 325 299 255 252 232 242 293 308 355 318 268 239 221 200 215 230 232 232 228 307 11 278 146 149 162 159 119 134 182 173 263 285 293 255 281 97 136 122 93 137 206 199 178 184 161 153 274 193 210 151 132 151 221 224 203 167 130 174 158 160 156 168 160 161 167 171 176 178 179 179